{"data":{"norad_id":68491,"epoch":"2026-05-24T20:38:40.968960Z","epoch_age_seconds":84152,"freshness":"FRESH","line1":"1 68491U 26067CD  26144.86019640  .00001909  00000+0  19716-3 0  9995","line2":"2 68491  97.7552 103.4092 0004535 114.1438 246.0255 14.91308255  8249","mean_motion":14.91308255,"eccentricity":0.0004535,"inclination_deg":97.7552,"raan_deg":103.4092,"arg_perigee_deg":114.1438,"mean_anomaly_deg":246.0255,"bstar":0.00019716,"rev_number":824,"period_min":96.559513780737,"perigee_km":590.69341515243,"apogee_km":597.01701209018,"semimajor_km":6971.9922136213,"source":"CELESTRAK","updated_at":"2026-05-25T13:38:07.875470Z"}}